Orbital Elements at Epoch 2459000.5 (2020-May-31.0) TDB
Reference: JPL 13 (heliocentric ecliptic J2000)
Element | Value | Uncertainty (1-sigma) | Units |
e | .2183564468458503 | 6.2322e-08 | |
a | 2.438136221951838 | 1.4504e-08 | au |
q | 1.905753459600269 | 1.5295e-07 | au |
i | 2.433943739563803 | 6.9458e-06 | deg |
node | 4.411222073776171 | 0.00015626 | deg |
peri | 354.1632884496779 | 0.00015689 | deg |
M | 160.9751809267497 | 1.463e-05 | deg |
tp | 2458378.712770844248 (2018-Sep-17.21277084) | 5.4733e-05 | TDB |
period | 1390.546053170325 3.81 | 1.2408e-05 3.397e-08 | d yr |
n | .2588911019374231 | 2.3102e-09 | deg/d |
Q | 2.970518984303407 | 1.7671e-08 | au |
|
| | Orbit Determination Parameters
Additional Information
|